Weather in Chongar

Ukraine / Kherson District     46°01′49″N   34°32′44″E
temp.,
°C
wind,
m/s
gust,
m/s
humid.,
%
clouds,
%
prec.,
mm/h
press.,
hPa
HPBL,
m
7 may, fri
fri700:00+13w457081 0.0 1014160
03:00+13w4571100 0.0 1014192
06:00+13wnw45795 0.0 1015263
09:00+13n12835 0.0 1016118
12:00+14se22765 0.0 1017119
15:00+15ese5572100 0.0 1016101
18:00+15ese797886 0.0 1015168
21:00+15se697754 0.0 1014125
8 may, sat
sat800:00+15ssw4474100 0.0 101357
03:00+15sse3472100 0.0 101260
06:00+14s3366100 0.0 101179
09:00+15se3365100 0.0 101146
12:00+16ne2263100 0.0 101155
15:00+17wnw7976100 0.0 1011137
18:00+15nnw101278100 0.0 1012519
21:00+12nnw121383100 0.6 1015737
9 may, sun
sun900:00+12nnw91175100 0.8 10161005
03:00+10nnw111174100 0.8 1017784
06:00+9nnw11128043 0.0 1020887
09:00+10nnw9106918 0.0 10221184
12:00+12nw895412 0.0 10231802
15:00+14nnw89475 0.0 10232171
18:00+15n894943 0.0 10241318
21:00+14n68546 0.0 10271098
10 may, mon
mon1000:00+12n68581 0.0 1028454
03:00+11n78635 0.0 1028354
06:00+10n78672 0.0 1028340
09:00+12n67560 0.0 1028809
12:00+14n574182 0.0 10272151
15:00+15nnw564598 0.0 10261646
18:00+15nnw795165 0.0 1024570
21:00+14nnw7958100 0.0 1024739
11 may, tue
tue1100:00+13nnw8106056 0.0 1023541
03:00+13nnw91166100 0.0 1021746
06:00+12nnw91170100 0.2 1019859
09:00+13n9107199 0.5 1019796
12:00+13n7873100 0.4 1018708
15:00+13n7979100 1.6 1018876
18:00+13nne79759 0.5 1018853
21:00+12ne88685 0.6 1017820